Regional Weather Roundup
Issued by NWS

Home | Current Version | Previous Version | Graphics & Text | Print | Product List | Glossary On
Versions: 1 2 3 4 5 6 7 8 9 10 11 12 13 14 15 16 17 18 19 20 21 22 23 24 25 26 27 28 29 30 31 32 33 34 35 36 37 38 39 40 41 42 43 44 45 46 47 48 49 50
000
ASUS44 KMEG 260010
RWRTN
TENNESSEE HOURLY STATE WEATHER ROUNDUP
NATIONAL WEATHER SERVICE MEMPHIS TN
700 PM CDT TUE JUL 25 2017

TNZ002-004-019-021-049-052-054-088>092-260100-
WEST TENNESSEE

CITY           SKY/WX    TMP DP  RH WIND       PRES   REMARKS
MEMPHIS INTL   CLOUDY    91  74  57 SW6       30.05R HX 100
NWS MEMPHIS      N/A     90 N/A N/A MISG        N/A
JACKSON        SUNNY     90  78  68 CALM      30.04S HX 104
COVINGTON      SUNNY     88  75  66 SW5       30.04R HX  97
UNION CITY     SUNNY     84  79  84 NE6       30.03S HX  96
BOLIVAR        SUNNY     86  73  66 CALM      30.05S HX  93
PARIS          SUNNY     86  79  79 N5        30.05R HX  99
HUNTINGDON     SUNNY     88  79  74 CALM      30.04S HX 102
LEXINGTON      SUNNY     88  79  74 CALM      30.04S HX 102
SELMER         SUNNY     86  75  70 SW5       30.06R HX  95
SAVANNAH       MOSUNNY   90  75  62 SW7       30.04S HX 100
$$

TNZ008-025-027-028-033-062-065-066-260100-
NORTH MIDDLE TENNESSEE

CITY           SKY/WX    TMP DP  RH WIND       PRES   REMARKS
NASHVILLE      PTSUNNY   89  72  56 N6        30.07S HX  96
PORTLAND       CLEAR     84  73  70 MISG      30.08R HX  91
CLARKSVILLE    MOSUNNY   84  74  71 N3        30.07R HX  91
SMYRNA         PTCLDY    88  73  61 N6        30.08R HX  95
COOKEVILLE     CLEAR     84  72  65 CALM      30.09S
GALLATIN       MOCLDY    88  73  62 CALM      30.09R HX  96
CROSSVILLE     CLEAR     83  66  56 N5        30.16R
$$

TNZ061-075-076-078-094-096-097-260100-
SOUTH MIDDLE TENNESSEE

CITY           SKY/WX    TMP DP  RH WIND       PRES   REMARKS
FAYETTEVILLE   PTCLDY    86  73  66 S13       30.09R HX  93
TULLAHOMA      CLEAR     84  73  70 SW3       30.11R HX  91
WINCHESTER     CLEAR     81  70  69 CALM      30.10R
MCMINNVILLE    CLEAR     88  75  66 N6        30.10S HX  97
COLUMBIA       SUNNY     91  72  52 CALM      30.05R HX  98
SHELBYVILLE    PTCLDY    84  73  70 CALM      30.08R HX  91
$$

TNZ017-018-042-046-047-260100-
NORTHEAST TENNESSEE

CITY           SKY/WX    TMP DP  RH WIND       PRES   REMARKS
TRI CITIES     PTCLDY    83  67  58 N5        30.13R
ELIZABETHTON   CLEAR     82  68  61 CALM      30.13R
$$

TNZ012-013-036-069-073-074-260100-
CENTRAL EAST TENNESSEE

CITY           SKY/WX    TMP DP  RH WIND       PRES   REMARKS
KNOXVILLE      PTCLDY    88  62  41 N7        30.08R
OAK RIDGE      CLEAR     89  63  41 NW5       30.11R HX  90
DOWNTOWN KNOXV CLEAR     84  70  61 CALM      30.08R
GATLINBURG     CLEAR     86  63  45 N3        30.09R
MORRISTOWN     PTCLDY    86  68  54 N8        30.10R
JACKSBORO      CLEAR     84  66  54 N5        30.14S
$$

TNZ083-085-099-260100-
SOUTHEAST TENNESSEE

CITY           SKY/WX    TMP DP  RH WIND       PRES   REMARKS
CHATTANOOGA    MOCLDY    87  73  62 NW6       30.07S HX  94
DAYTON         CLEAR     88  77  70 CALM      30.06S HX 100
$$

SKY/WX REPORTED AS FAIR MEANS FEW OR NO CLOUDS BELOW
12 THOUSAND FEET.




USA.gov is the U.S. government's official web portal to all federal, state and local government web resources and services.